Location: ?????????
(54.7630°N, 39.4991°E)
Time: 09:57:35
(UTC+00:00)

USA 281 - Pass Details

Date: 14 April 2026
Orbit: 1079 x 1080 km, 106.0° (Epoch: 5 January)

Event Time Altitude Azimuth Distance (km) Brightness Sun altitude
Exits shadow 23:41:47 31° 220° (SW) 1,791 3.8 -19.2°
Maximum altitude 23:43:42 37° 254° (WSW) 1,615 3.7 -19.0°
Drops below altitude 10° 23:49:44 10° 321° (NW) 2,933 5.6 -18.5°
Sets 23:52:30 0° 329° (NNW) 3,893 6.4 -18.2°
